Погода в Жекие

Бразилия     13°52′34″S   40°05′04″W
темп.,
°C
ветер,
м/с
пор.,
м/с
влажн.,
%
обл.,
%
осадки,
мм/ч
давл.,
гПа
погр.,
м
27 февраля, сб
сб2700:00+20юв1198100 0.0 101464
03:00+20вюв1298100 0.1 1013133
06:00+20юв119881 0.1 101472
09:00+24вюв138287 0.4 1015624
12:00+27всв246570 1.2 1014957
15:00+29юв465255 2.5 10111403
18:00+24юв28734 0.3 1011646
21:00+20вюв139850 0.3 1013121
28 февраля, вс
вс2800:00+19юв1110077 0.1 101333
03:00+20ююв1110080 0.1 101251
06:00+19ююв1199100 0.0 101324
09:00+26юв246391 0.0 1014932
12:00+26юв3576100 0.9 1012928
15:00+25вюв3680100 3.3 1010831
18:00+21юв2797100 1.3 1011477
21:00+20юв119982 1.4 101238
1 марта, пн
пн100:00+20юв129981 0.3 101297
03:00+20юв1210086 0.9 1011102
06:00+20юв1210098 0.3 1012158
09:00+22юв249499 0.8 1013478
12:00+23вюв248881 1.5 1012499
15:00+24вюв379061 6.3 1010815
18:00+23в287953 0.2 1011655
21:00+19вюв159728 0.3 1013191
2 марта, вт
вт200:00+18юв139940 0.2 1014118
03:00+18ю119952 0.2 101324
06:00+19юв129877 0.1 1014117
09:00+25вюв257174 0.2 1015930
12:00+27вюв355855 0.1 10141244
15:00+29вюв465549 0.5 10111557
18:00+24вюв386218 0.1 1012693
21:00+18вюв139514 0.1 101593
3 марта, ср
ср300:00+18юв009917 0.0 101623
03:00+18юз009834 0.1 101529
06:00+18зсз119971 0.1 101623
09:00+26в126661 0.4 1018735
12:00+30вюв344541 0.1 10161768
15:00+31юв444521 0.1 10132007
18:00+23юв298418 0.3 1013443
21:00+19юв139613 0.3 101694